Location: Oracle State Park
(32.6095°N, 110.7330°W)
Time: 02:53:25
(UTC-07:00)

N. Korean satellite - Visible Passes

Search period start: 22 March 2019 00:00
Search period end: 01 April 2019 00:00
Orbit: 456 x 510 km, 97.2° (Epoch: 21 March)

Date Brightness Start Highest point End Pass type
(mag) Time Alt. Az. Time Alt. Az. Time Alt. Az.
22 Mar 9.9 05:36:43 10° ENE 05:38:47 15° E 05:40:52 10° SE visible
25 Mar 9.2 05:54:44 10° NE 05:57:49 27° E 06:00:56 10° SSE visible
26 Mar 10.1 05:31:17 10° ENE 05:32:54 13° E 05:34:31 10° ESE visible
29 Mar 9.5 05:48:59 10° NE 05:51:54 23° E 05:54:50 10° SSE visible
30 Mar 10.4 05:26:07 10° E 05:26:57 11° E 05:27:47 10° ESE visible
